Hourly Weather Suhaya

Today, 22 January, Friday

Time Temperature Precipitation Wind Pressure Humidity
00:00 -21°C° 0 mm 1 mps 679 mmHg 96%
01:00 -21°C° 0 mm 1 mps 679 mmHg 97%
02:00 -21°C° 0 mm 1 mps 678 mmHg 96%
03:00 -21°C° 0 mm 1 mps 678 mmHg 96%
04:00 -20°C° 0 mm 1 mps 678 mmHg 96%
05:00 -20°C° 0 mm 1 mps 678 mmHg 96%
06:00 -20°C° 0 mm 1 mps 678 mmHg 96%
07:00 -20°C° 0 mm 1 mps 677 mmHg 95%
08:00 -19°C° 0 mm 1 mps 678 mmHg 92%
09:00 -17°C° 0 mm 0 mps 678 mmHg 89%
10:00 -16°C° 0 mm 0 mps 678 mmHg 86%
11:00 -14°C° 0 mm 0 mps 678 mmHg 84%
12:00 -13°C° 0 mm 1 mps 677 mmHg 81%
13:00 -11°C° 0 mm 1 mps 677 mmHg 79%
14:00 -12°C° 0 mm 1 mps 677 mmHg 83%
15:00 -14°C° 0 mm 1 mps 676 mmHg 87%
16:00 -15°C° 0 mm 1 mps 676 mmHg 91%
17:00 -16°C° 0 mm 1 mps 676 mmHg 91%
18:00 -16°C° 0 mm 1 mps 675 mmHg 92%
19:00 -17°C° 0 mm 1 mps 675 mmHg 92%
20:00 -17°C° 0 mm 1 mps 675 mmHg 93%
21:00 -17°C° 0 mm 1 mps 675 mmHg 94%
22:00 -17°C° 0 mm 1 mps 675 mmHg 95%
23:00 -17°C° 0 mm 1 mps 674 mmHg 94%

Tomorrow, 23 January, Saturday

Time Temperature Precipitation Wind Pressure Humidity
00:00 -17°C° 0 mm 1 mps 674 mmHg 93%
01:00 -17°C° 0 mm 1 mps 674 mmHg 92%
02:00 -17°C° 0 mm 1 mps 674 mmHg 91%
03:00 -17°C° 0 mm 1 mps 674 mmHg 90%
04:00 -17°C° 0 mm 1 mps 674 mmHg 90%
05:00 -17°C° 0 mm 1 mps 675 mmHg 90%
06:00 -17°C° 0 mm 1 mps 675 mmHg 90%
07:00 -18°C° 0 mm 1 mps 675 mmHg 91%
08:00 -16°C° 0 mm 1 mps 676 mmHg 89%
09:00 -15°C° 0 mm 1 mps 676 mmHg 87%
10:00 -13°C° 0 mm 1 mps 677 mmHg 85%
11:00 -12°C° 0 mm 1 mps 677 mmHg 82%
12:00 -10°C° 0 mm 1 mps 677 mmHg 79%
13:00 -9°C° 0 mm 1 mps 678 mmHg 76%
14:00 -10°C° 0 mm 1 mps 678 mmHg 81%
15:00 -12°C° 0 mm 1 mps 678 mmHg 86%
16:00 -13°C° 0 mm 1 mps 678 mmHg 91%
17:00 -14°C° 0 mm 0 mps 678 mmHg 91%
18:00 -14°C° 0 mm 0 mps 679 mmHg 92%
19:00 -15°C° 0 mm 0 mps 680 mmHg 93%
20:00 -15°C° 0 mm 0 mps 680 mmHg 94%
21:00 -14°C° 0 mm 0 mps 680 mmHg 95%
22:00 -14°C° 0 mm 0 mps 681 mmHg 96%
23:00 -14°C° 0 mm 0 mps 681 mmHg 96%

Day after tomorrow, 24 January, Sunday

Time Temperature Precipitation Wind Pressure Humidity
00:00 -13°C° 0 mm 0 mps 681 mmHg 96%
01:00 -13°C° 0 mm 1 mps 681 mmHg 96%
02:00 -13°C° 0.1 mm 1 mps 682 mmHg 96%
03:00 -13°C° 0.1 mm 1 mps 682 mmHg 96%
04:00 -13°C° 0.1 mm 1 mps 682 mmHg 96%
05:00 -13°C° 0.1 mm 1 mps 682 mmHg 96%
06:00 -13°C° 0.1 mm 1 mps 682 mmHg 96%
07:00 -13°C° 0.1 mm 1 mps 683 mmHg 96%
08:00 -12°C° 0 mm 1 mps 683 mmHg 94%
09:00 -12°C° 0 mm 1 mps 683 mmHg 91%
10:00 -11°C° 0 mm 1 mps 683 mmHg 89%
11:00 -13°C° 0 mm 2 mps 682 mmHg 86%
12:00 -13°C° 0 mm 2 mps 682 mmHg 83%
13:00 -13°C° 0 mm 2 mps 682 mmHg 80%
14:00 -13°C° 0.1 mm 2 mps 682 mmHg 84%
15:00 -14°C° 0.1 mm 2 mps 681 mmHg 88%
16:00 -14°C° 0.1 mm 2 mps 681 mmHg 91%
17:00 -15°C° 0.3 mm 2 mps 681 mmHg 93%
18:00 -15°C° 0.3 mm 2 mps 681 mmHg 94%
19:00 -15°C° 0.3 mm 2 mps 681 mmHg 95%
20:00 -15°C° 0.2 mm 2 mps 681 mmHg 95%
21:00 -16°C° 0.2 mm 2 mps 681 mmHg 95%
22:00 -16°C° 0.2 mm 2 mps 680 mmHg 95%
23:00 -16°C° 0.2 mm 2 mps 680 mmHg 95%

25 January, Monday

Time Temperature Precipitation Wind Pressure Humidity
00:00 -17°C° 0.2 mm 2 mps 679 mmHg 95%
01:00 -17°C° 0.2 mm 2 mps 679 mmHg 96%
02:00 -18°C° 0.3 mm 2 mps 679 mmHg 96%
03:00 -18°C° 0.3 mm 2 mps 679 mmHg 96%
04:00 -18°C° 0.3 mm 2 mps 678 mmHg 96%
05:00 -19°C° 0.3 mm 2 mps 678 mmHg 96%
06:00 -19°C° 0.3 mm 2 mps 679 mmHg 96%
07:00 -19°C° 0.3 mm 2 mps 679 mmHg 97%
08:00 -19°C° 0.2 mm 2 mps 679 mmHg 95%
09:00 -19°C° 0.2 mm 2 mps 679 mmHg 94%
10:00 -19°C° 0.2 mm 2 mps 679 mmHg 93%
11:00 -19°C° 0.2 mm 3 mps 679 mmHg 92%
12:00 -19°C° 0.2 mm 3 mps 679 mmHg 91%
13:00 -20°C° 0.2 mm 4 mps 678 mmHg 90%
14:00 -20°C° 0.1 mm 4 mps 679 mmHg 90%
15:00 -22°C° 0.1 mm 4 mps 679 mmHg 91%
16:00 -23°C° 0.1 mm 4 mps 679 mmHg 91%
17:00 -23°C° 0 mm 4 mps 679 mmHg 92%
18:00 -24°C° 0 mm 4 mps 679 mmHg 93%
19:00 -25°C° 0 mm 4 mps 679 mmHg 94%
20:00 -25°C° 0 mm 4 mps 679 mmHg 93%
21:00 -25°C° 0 mm 4 mps 680 mmHg 93%
22:00 -25°C° 0 mm 4 mps 680 mmHg 93%
23:00 -26°C° 0.1 mm 4 mps 680 mmHg 93%

26 January, Tuesday

Time Temperature Precipitation Wind Pressure Humidity
00:00 -26°C° 0.1 mm 4 mps 680 mmHg 93%
01:00 -26°C° 0.1 mm 4 mps 680 mmHg 93%
02:00 -27°C° 0 mm 5 mps 680 mmHg 93%
03:00 -28°C° 0 mm 5 mps 680 mmHg 93%
04:00 -28°C° 0 mm 5 mps 681 mmHg 92%
05:00 -28°C° 0 mm 5 mps 681 mmHg 92%
06:00 -28°C° 0 mm 5 mps 681 mmHg 91%
07:00 -29°C° 0 mm 5 mps 681 mmHg 91%
08:00 -28°C° 0 mm 5 mps 682 mmHg 89%
09:00 -28°C° 0 mm 5 mps 682 mmHg 87%
10:00 -27°C° 0 mm 5 mps 682 mmHg 84%
11:00 -28°C° 0 mm 6 mps 682 mmHg 84%
12:00 -28°C° 0 mm 6 mps 682 mmHg 83%
13:00 -27°C° 0 mm 6 mps 682 mmHg 83%
14:00 -28°C° 0 mm 6 mps 682 mmHg 83%
15:00 -28°C° 0 mm 6 mps 683 mmHg 84%
16:00 -29°C° 0 mm 6 mps 683 mmHg 84%
17:00 -29°C° 0 mm 5 mps 683 mmHg 87%
18:00 -30°C° 0 mm 4 mps 683 mmHg 91%
19:00 -30°C° 0 mm 3 mps 683 mmHg 94%
20:00 -31°C° 0 mm 3 mps 683 mmHg 94%
21:00 -32°C° 0 mm 3 mps 683 mmHg 94%
22:00 -32°C° 0 mm 3 mps 684 mmHg 95%
23:00 -32°C° 0 mm 3 mps 684 mmHg 95%

27 January, Wednesday

Time Temperature Precipitation Wind Pressure Humidity
00:00 -31°C° 0 mm 2 mps 684 mmHg 95%
01:00 -31°C° 0 mm 2 mps 684 mmHg 95%
02:00 -32°C° 0 mm 2 mps 684 mmHg 95%
03:00 -32°C° 0 mm 2 mps 684 mmHg 95%
04:00 -32°C° 0 mm 2 mps 684 mmHg 96%
05:00 -34°C° 0 mm 2 mps 684 mmHg 96%
06:00 -34°C° 0 mm 2 mps 685 mmHg 96%
07:00 -35°C° 0 mm 2 mps 685 mmHg 97%
08:00 -32°C° 0 mm 2 mps 685 mmHg 94%
09:00 -31°C° 0 mm 2 mps 686 mmHg 91%
10:00 -31°C° 0 mm 3 mps 687 mmHg 89%
11:00 -31°C° 0 mm 3 mps 687 mmHg 86%
12:00 -31°C° 0 mm 4 mps 687 mmHg 83%
13:00 -31°C° 0 mm 5 mps 687 mmHg 81%
14:00 -32°C° 0 mm 5 mps 687 mmHg 83%
15:00 -32°C° 0 mm 4 mps 687 mmHg 85%
16:00 -33°C° 0 mm 4 mps 687 mmHg 87%
17:00 -34°C° 0 mm 4 mps 687 mmHg 89%
18:00 -34°C° 0 mm 3 mps 688 mmHg 91%
19:00 -35°C° 0 mm 3 mps 688 mmHg 93%
20:00 -35°C° 0 mm 3 mps 688 mmHg 93%
21:00 -35°C° 0 mm 3 mps 689 mmHg 94%
22:00 -36°C° 0 mm 3 mps 689 mmHg 94%
23:00 -36°C° 0 mm 3 mps 689 mmHg 94%
Show more